Simultaneous Nadir Overpasses (SNOs) Predictions

Prediction of SNOs between LANDSAT-8 and NOAA-19 Satellite Orbit:

Table of predicted SNOs for the next 14.0 days since TLE Epoch: 8/11/2018
Index Date (LANDSAT-8) Time (LANDSAT-8) Lat,Lon (LANDSAT-8) SZA (LANDSAT-8 ) Date (NOAA-19) Time (NOAA-19) Lat,Lon (NOAA-19) SZA (NOAA-19 ) Distance(km) Time Diff (sec)
1 08/11/2018 23:36:27 77.88,-159.15 63.13 08/11/2018 23:35:25 77.85,-159.19 63.10 2.53 62
2 08/12/2018 00:25:55 -77.84, 8.32 116.91 08/12/2018 00:26:19 -77.83, 8.19 116.91 3.10 24
3 08/14/2018 05:10:08 -78.09, -61.60 115.93 08/14/2018 05:09:00 -78.14, -64.11 116.02 57.90 68
4 08/14/2018 05:59:40 77.82, 104.81 63.76 08/14/2018 05:59:58 77.82, 104.95 63.77 3.22 18
5 08/16/2018 11:33:25 -77.86,-158.44 115.49 08/16/2018 11:33:26 -77.83,-158.43 115.52 3.33 1
6 08/18/2018 17:07:10 77.84, -61.99 65.20 08/18/2018 17:07:06 77.87, -61.98 65.24 4.02 4
7 08/18/2018 17:56:45 -77.49, 104.18 115.20 08/18/2018 17:57:50 -77.44, 107.56 115.04 81.60 65
8 08/20/2018 22:40:55 -77.88, 34.77 114.01 08/20/2018 22:40:34 -77.88, 34.70 114.02 1.52 21
9 08/20/2018 23:30:24 77.73,-158.24 65.82 08/20/2018 23:31:35 77.69,-157.06 65.87 28.47 71
10 08/23/2018 04:14:39 77.89, 131.37 66.76 08/23/2018 04:14:12 77.87, 131.44 66.73 2.96 27




NCC Satellite Simultaneous Nadir Overpasses (SNOs) Prediction Service
